Tracking 19794 objects as of 21-Jul-2019
HD Live streaming from Space Station
objects crossing your sky now

NOAA 16 DEB

Track NOAA 16 DEB now!
10-day predictions


NORAD ID: 42401
Int'l Code: 2000-055SV
Perigee: 764.6 km
Apogee: 862.3 km
Inclination: 98.9 °
Period: 101.0 minutes
Semi major axis: 7184 km
RCS: Unknown
Launch date: September 21, 2000
Source: United States (US)
Launch site: AIR FORCE WESTERN TEST RANGE (AFWTR)

Note: This is SATELLITE DEBRIS
aabbcc
Your satellite tracking list
Your tracking list is empty




NASA's NSSDC Master Catalog

Two Line Element Set (TLE):
1 42401U 00055SV  19201.11949641  .00000986  00000-0  42498-3 0  9992
2 42401  98.8963 305.6948 0068009 252.8148 106.5578 14.25651125176226
Source of the keplerian elements: AFSPC